Notices

What's New in latest Release from April 7th, 2021:

- Updated Glossary, including Speed of Maximum Gust, and Total Hourly Precipitation

- Updated national and regional climate services offices contacts and prices information

- Addition of station inventory lists for 1981-2010, 1971-2000, and 1961-1990 Normals.

If you haven't already, please take our survey and provide feedback about our website: https://eccc.sondage-survey.ca/f/LanguageSelection.aspx?s=442ca660-fcf1-47c0-95a9-59707d6fd709

Hourly Data Report for May 11, 2020

TRENTON A
ONTARIO
Current Station Operator: DND

44°07'00.000" N
77°32'00.000" W
86.30 m
6158875
71621
YTR

Download Data

Hourly Data (May 2020)
Hourly Data Report for May 11, 2020
TIME
LST
Temp Definition
°C
Dew Point Definition
°C
Rel Hum Definition
%
Precip. Amount Definition
mm

Wind Dir Definition
10's deg

Wind Spd Definition
km/h
Visibility Definition
km
Stn Press Definition
kPa
Hmdx Definition


Wind Chill Definition


Weather Definition


00:00 4.9 3.5 91   24 4 8.1 100.19     Rain,Fog
01:00 4.8 3.5 91   36 4 6.4 100.11     Fog
02:00 4.9 3.6 91     0 9.7 100.10     Fog
03:00 3.9 2.3 89   35 4 16.1 100.06     Cloudy
04:00 4.0 2.7 91   3 4 24.1 100.05     Cloudy
05:00 4.4 2.7 89   32 4 19.3 100.08     Rain
06:00 4.5 2.3 86   2 8 11.3 100.11     Rain
07:00 3.8 -0.7 72   4 21 11.3 100.14     Rain
08:00 2.9 -0.1 81   1 18 11.3 100.17     Rain
09:00 1.5 -0.7 85   1 21 6.4 100.17     Rain,Snow,Fog
10:00 2.1 -0.2 85   2 21 19.3 100.23     Rain
11:00 3.7 1.0 83   35 18 24.1 100.25     Rain
12:00 4.7 1.4 79   36 11 24.1 100.25     Cloudy
13:00 5.8 1.2 72   33 13 24.1 100.24     Rain
14:00 6.4 1.3 70   28 17 24.1 100.25     Rain
15:00 5.5 2.5 81   24 9 19.3 100.26     Rain
16:00 5.3 4.0 91   22 17 19.3 100.26     Rain
17:00 6.9 2.6 74   22 15 24.1 100.22     Mostly Cloudy
18:00 8.5 0.8 58   26 17 24.1 100.19     Mostly Cloudy
19:00 7.9 -1.4 51   27 31 24.1 100.22     Mostly Cloudy
20:00 5.7 -2.8 53   29 31 24.1 100.33     Mainly Clear
21:00 4.1 -4.4 52   30 31 24.1 100.41     Mainly Clear
22:00 3.0 -5.2 52   31 28 24.1 100.45     Mainly Clear
23:00 2.4 -5.1 55   31 24 24.1 100.47     Mainly Clear

Notes on Data Quality.

Legend

  • E = Estimated
  • M = Missing
  • NA = Not Available*
  • [empty] = Indicates an unobserved value
Date modified: